Location: Tamazert
(32.6352°N, 5.2072°W)
Time: 04:07:01
(UTC+00:00)

Vanguard 1 Rocket - Pass Details

Date: 05 October 2022
Orbit: 650 x 4225 km, 34.3° (Epoch: 05 December)

Event Time Altitude Azimuth Distance (km) Brightness Sun altitude
Rises 15:56:59 0° 208° (SSW) 8,095 13.0 24.3°
Reaches altitude 10° 16:03:09 10° 201° (SSW) 7,295 12.7 23.1°
Maximum altitude 16:25:42 39° 142° (SE) 5,101 11.2 18.7°
Drops below altitude 10° 16:43:17 10° 82° (E) 5,877 11.0 15.1°
Sets 16:47:25 0° 75° (ENE) 6,469 11.1 14.3°
